Wind_Speed
20 21 21 22 22 23 24 25 25 27 28 29 30 31 31 32 33 33 34 35 36 37 38 39 40 41 41 42 43 44 44 45 45 45 45 45 44 44 44 44 43 41 41 40 39 38 38 39 39 39 39 39 42 43 42 39 37 36 34 32 32 32 30 29 30 29 28 26 24 23 25 26 28 31
20 21 21 22 22 22 23 23 24 25 26 27 27 28 29 30 31 31 32 34 35 35 36 37 39 40 40 42 43 44 45 46 46 46 46 46 46 45 44 44 43 42 41 41 40 39 39 39 40 40 41 41 44 46 46 43 40 39 38 36 35 35 34 33 33 34 34 33 30 27 24 22 22 22
21 21 22 22 23 23 23 23 24 24 25 26 26 27 28 29 29 30 31 32 34 35 36 37 38 38 39 40 41 43 44 45 47 48 48 48 47 47 46 45 44 42 40 40 40 39 39 40 40 41 42 43 44 47 47 46 43 41 39 38 38 37 36 34 34 35 36 36 35 33 31 29 27 25
22 22 23 24 24 25 25 26 26 26 27 27 28 28 29 29 30 30 30 31 33 34 35 36 38 39 39 40 41 42 43 44 45 47 48 49 49 49 48 48 46 44 41 39 39 38 38 39 40 41 42 43 44 46 48 47 46 44 41 40 39 39 38 36 35 35 37 37 36 36 35 34 33 31
23 24 25 26 27 28 28 28 29 29 29 29 29 29 30 30 30 30 29 30 31 32 34 35 37 39 40 42 43 43 44 44 44 45 47 48 48 49 49 49 48 47 44 42 40 40 39 39 39 40 41 42 44 45 47 48 48 46 44 42 41 40 39 38 37 36 37 37 37 37 37 36 35 33
25 26 27 28 28 29 29 29 29 29 29 29 29 29 28 28 29 28 28 28 28 29 31 32 34 36 38 41 43 45 46 47 47 47 47 48 48 48 48 48 48 47 46 44 43 42 41 41 41 41 41 42 43 44 46 47 48 47 46 44 42 41 40 39 39 38 38 37 37 37 37 37 36 34
26 27 27 28 28 29 29 29 29 29 28 28 28 28 29 29 30 30 30 30 29 29 30 30 32 33 35 37 40 43 46 48 50 50 50 50 49 48 48 49 48 47 45 45 44 43 43 42 42 42 42 42 43 44 44 46 46 46 46 44 42 41 41 40 39 39 38 38 38 37 37 37 36 35
27 28 28 28 28 28 28 28 27 27 28 28 29 30 31 31 32 32 32 31 31 30 31 32 33 34 34 35 37 39 41 44 48 51 52 52 52 51 50 49 49 48 45 44 45 44 42 42 41 42 42 43 43 43 44 44 45 44 44 43 42 42 42 41 40 40 39 38 38 37 37 37 37 36
28 28 27 27 26 26 26 26 27 27 28 29 30 31 33 33 33 33 33 33 33 33 33 34 34 35 35 36 36 37 38 39 41 46 49 51 53 53 52 51 50 49 48 46 45 43 42 42 41 40 40 41 41 42 42 43 43 44 44 43 42 42 42 42 41 41 40 39 38 38 38 38 38 38
27 26 26 25 25 26 26 27 27 28 30 31 32 33 34 34 34 34 35 35 35 35 35 35 35 35 36 37 36 36 37 36 36 37 40 44 47 50 52 52 51 50 49 48 46 44 43 42 41 41 40 40 40 40 40 41 41 42 43 43 43 42 42 42 42 41 40 40 40 39 39 38 38 38
26 25 26 26 27 27 28 28 29 30 31 32 33 33 34 33 33 35 36 36 37 37 37 36 36 37 37 38 37 36 35 35 34 34 34 36 39 43 47 49 50 50 50 49 48 46 45 43 42 42 42 42 41 41 41 40 40 40 41 41 42 42 43 43 42 41 40 40 39 40 40 40 39 39
27 27 28 28 29 30 30 31 31 32 32 33 34 34 33 33 33 34 34 35 36 37 37 37 37 38 38 38 38 36 34 33 33 33 33 33 34 36 39 42 45 47 48 48 47 47 46 45 44 43 43 43 43 42 42 42 41 41 41 40 41 41 42 42 43 43 42 40 39 39 39 40 40 40
29 29 30 30 30 31 31 32 33 33 34 34 35 35 35 35 35 36 35 35 34 35 35 36 36 37 37 38 37 36 34 33 32 32 32 31 31 32 33 35 38 41 44 45 45 46 45 44 44 44 44 44 44 44 43 44 44 44 43 42 41 41 41 42 42 43 42 42 41 40 39 39 40 40
30 29 29 29 30 31 31 32 33 34 35 36 36 36 36 36 36 37 37 37 36 35 35 35 35 35 36 37 36 34 34 33 32 31 31 31 30 30 30 30 32 34 36 38 40 41 42 42 42 43 43 44 45 45 46 46 46 46 46 46 45 44 43 43 43 43 43 43 42 41 40 39 39 40
29 29 29 30 31 32 33 34 35 36 37 38 38 38 38 38 37 37 37 37 37 36 36 36 35 35 35 35 34 34 33 33 31 31 31 31 30 29 28 28 28 28 29 31 32 34 36 36 37 38 40 41 43 44 46 47 47 48 48 48 48 47 45 44 44 44 43 43 43 43 42 40 40 40
30 30 31 32 33 35 36 37 38 38 38 39 39 39 39 39 39 38 38 37 37 37 36 37 36 34 34 33 32 32 32 31 29 28 27 27 26 26 26 26 26 26 26 27 28 28 29 29 30 31 32 33 35 37 39 41 43 45 47 48 48 48 47 46 45 45 44 44 43 43 43 42 41 40
32 32 33 34 35 37 38 38 39 39 40 40 41 40 40 40 40 40 40 39 38 36 36 36 36 34 33 33 31 30 29 28 27 26 25 24 24 24 24 24 24 24 25 25 26 26 27 27 27 27 27 28 28 29 30 32 34 36 40 42 44 45 46 46 46 45 45 45 44 43 43 42 42 41
33 34 35 35 37 38 39 40 40 41 41 42 43 44 43 44 44 43 43 42 40 38 36 35 35 34 33 32 31 30 29 27 27 26 25 25 24 23 22 21 21 21 22 23 24 25 27 28 27 27 28 28 28 28 27 28 28 29 32 34 37 39 41 43 44 45 45 45 44 44 43 42 42 41
34 35 36 37 38 39 40 41 42 43 44 45 46 47 47 47 47 47 47 45 44 41 38 35 34 34 33 32 31 30 29 28 27 26 25 24 23 22 21 20 19 19 19 19 21 23 25 26 26 26 27 28 28 27 26 26 26 26 27 28 30 32 34 37 40 42 44 44 45 44 44 43 42 42
35 36 37 39 40 42 43 44 45 46 47 48 49 49 49 48 48 49 48 47 46 44 41 37 34 33 32 31 30 29 28 27 27 26 25 24 23 21 20 19 18 17 16 16 18 20 21 22 22 22 23 24 24 24 23 23 24 24 24 25 25 26 27 30 34 38 41 43 44 44 44 44 43 42
36 38 40 42 43 45 46 47 48 49 50 51 50 50 49 49 48 48 48 47 45 44 42 38 35 32 31 30 29 28 27 26 25 25 24 23 22 21 20 18 17 16 15 15 16 17 17 17 18 18 18 18 19 19 19 20 21 21 22 22 22 22 23 25 28 32 36 39 41 43 43 44 43 43
38 40 42 44 46 48 49 50 51 51 51 51 50 49 49 48 47 46 44 43 42 42 41 38 35 32 31 29 27 26 26 25 24 24 22 21 21 20 19 17 16 15 14 13 14 15 15 15 14 14 13 14 14 15 15 15 16 17 18 18 19 19 19 20 22 26 29 33 36 39 41 42 43 43
40 42 45 47 49 50 51 51 51 50 49 49 48 47 45 43 41 38 37 36 36 36 37 36 33 31 29 28 26 24 24 24 23 22 21 20 19 19 18 17 16 15 13 12 13 14 14 13 13 12 12 12 12 13 13 13 13 14 14 14 15 16 16 17 18 20 23 26 30 33 36 39 40 41
42 45 47 50 51 52 51 50 49 49 47 46 43 40 38 36 34 34 33 32 30 30 31 32 30 29 27 26 24 22 22 22 22 21 19 18 18 18 18 17 16 14 13 13 14 14 14 13 12 12 12 12 12 12 12 12 13 13 13 13 14 14 14 15 16 18 19 21 24 27 30 32 34 36
44 46 49 51 52 51 49 49 49 47 43 39 36 34 33 33 34 34 33 32 30 27 26 27 27 26 25 24 23 21 20 20 21 20 18 17 17 17 17 16 15 14 13 14 14 13 13 13 13 13 13 13 12 12 12 12 12 13 13 14 13 13 12 13 14 16 18 20 22 24 25 26 28 29
46 48 51 51 50 49 49 49 47 42 38 35 33 33 34 35 35 34 32 31 29 26 23 22 22 22 22 22 22 20 19 18 18 19 18 17 16 16 16 16 15 13 14 14 14 13 13 14 14 14 14 13 12 12 13 13 12 13 13 13 13 13 12 11 13 14 16 17 20 21 22 23 25 26
48 50 51 50 49 48 48 46 41 36 33 32 33 34 35 35 34 31 28 25 24 22 21 18 18 18 20 20 20 19 17 17 17 18 17 16 15 15 15 15 14 13 14 14 14 13 14 14 14 15 14 13 13 13 13 14 13 13 13 13 14 13 13 13 13 14 14 15 16 17 19 21 23 24
50 51 50 48 47 47 46 41 34 30 30 31 32 33 34 34 33 29 25 21 20 19 17 15 14 15 17 18 18 16 15 15 16 16 15 14 14 14 14 14 14 13 13 13 13 14 15 14 14 14 14 14 14 14 14 14 14 14 14 14 14 13 13 14 14 15 16 15 15 16 17 19 20 22
50 49 46 45 46 45 41 35 30 28 29 30 31 31 30 31 31 28 23 20 17 16 14 12 11 12 14 15 14 14 13 13 13 13 13 12 13 13 12 13 13 13 13 12 13 14 15 14 13 14 15 15 15 15 14 14 14 14 14 14 13 13 13 14 14 15 15 15 15 16 17 18 19 20
48 45 43 43 45 42 37 31 28 28 28 29 30 30 28 28 28 26 23 20 16 14 12 10 8 10 11 11 11 11 11 11 11 11 11 11 12 12 12 12 13 12 12 12 12 13 14 13 12 13 14 14 14 13 13 13 13 13 14 14 13 13 13 13 13 14 14 13 14 15 16 17 17 18
44 42 42 44 43 39 33 29 29 28 28 29 30 29 26 24 24 23 22 20 17 14 11 8 6 7 8 9 9 9 9 9 9 9 9 10 11 12 12 11 11 11 10 10 10 11 12 13 13 12 12 12 11 11 11 11 11 11 12 13 13 13 13 12 12 13 13 12 12 13 15 15 15 16
41 41 43 44 41 35 30 29 29 28 29 30 31 27 24 22 22 21 22 20 17 15 13 8 4 4 5 6 6 7 7 8 8 8 9 10 11 11 11 11 10 10 10 10 10 10 11 11 12 12 12 11 10 10 10 10 10 10 10 11 12 13 13 13 13 13 13 12 12 13 13 13 13 14
41 42 44 43 38 32 29 29 29 28 29 31 30 26 23 21 19 20 21 18 15 15 13 8 3 1 2 3 4 5 5 6 7 7 8 9 9 10 10 9 9 9 9 10 10 10 10 10 10 11 12 11 11 11 10 10 10 10 10 11 12 12 12 12 12 12 11 11 12 12 12 12 12 12
42 43 43 40 35 30 28 28 28 28 30 30 28 26 23 20 18 19 19 15 13 14 12 9 6 5 3 2 1 3 4 5 6 6 6 7 8 8 8 8 8 8 9 10 10 9 10 10 11 11 11 11 11 11 10 10 10 11 12 12 12 12 11 11 10 10 10 10 11 11 11 11 11 11
43 43 41 38 33 28 26 26 26 27 29 29 28 26 23 21 19 18 17 14 13 13 12 11 10 8 6 3 2 2 3 4 4 5 5 6 7 8 8 7 7 7 8 9 9 10 10 11 11 11 11 10 10 10 10 10 10 10 11 12 12 11 11 10 10 9 9 9 9 9 10 10 10 10
42 41 39 36 31 27 25 24 24 26 28 29 29 27 24 21 19 18 17 16 16 15 14 12 11 10 7 5 3 2 2 2 3 4 5 6 6 7 7 6 6 7 7 8 9 10 11 11 11 11 10 10 10 10 10 10 9 9 9 10 10 10 10 10 10 9 9 8 8 9 10 9 8 8
41 39 37 34 28 25 23 23 23 25 27 29 30 28 25 22 20 19 19 18 17 16 15 14 13 11 9 7 5 3 2 1 2 3 4 5 6 6 6 6 6 7 7 8 9 9 10 10 9 9 9 9 9 9 9 9 9 8 8 8 8 9 9 9 9 9 9 10 9 9 9 9 8 7
39 37 35 31 26 23 22 22 23 25 26 28 29 28 26 24 22 21 21 20 19 18 17 15 13 11 10 9 7 5 3 3 2 3 3 4 4 5 6 6 7 7 7 7 7 7 7 7 7 7 7 8 8 8 8 8 8 8 7 7 7 8 9 9 9 8 9 10 10 9 9 9 8 7
37 35 33 29 24 22 22 23 23 25 25 26 28 27 26 25 23 22 22 22 21 20 19 17 15 13 12 11 10 8 6 5 4 3 3 3 3 3 4 5 5 5 6 6 6 5 4 4 5 6 6 7 7 7 7 6 6 6 7 7 8 10 9 8 8 8 8 9 10 10 9 9 8 8
35 34 32 28 23 22 22 23 24 24 24 25 25 26 25 25 24 23 23 23 22 21 21 20 18 17 16 16 15 13 11 9 7 6 5 4 3 2 2 2 3 4 5 5 4 4 5 4 4 5 5 6 6 6 6 6 6 6 7 7 9 10 9 8 8 8 8 10 10 9 9 8 7 6
34 32 31 29 25 22 22 22 23 23 23 23 23 24 24 24 24 23 23 22 22 22 22 22 21 20 20 19 19 19 17 16 13 11 9 7 7 6 5 5 4 5 5 6 5 5 4 4 3 3 3 3 4 5 6 6 6 6 6 8 9 9 8 8 9 8 7 7 7 5 4 4 4 4
34 32 31 30 27 25 23 22 22 22 22 21 21 21 22 22 23 23 23 22 22 22 23 23 23 22 22 21 21 21 20 19 18 16 14 12 11 11 10 9 8 8 7 7 7 7 7 6 5 5 3 1 2 5 6 6 5 4 5 7 9 8 8 7 7 6 4 4 3 2 0 0 2 3
34 33 32 31 30 28 26 24 23 22 22 21 20 19 20 21 21 23 23 23 23 23 23 23 23 23 23 22 22 21 21 20 19 17 16 15 15 15 15 14 12 10 10 11 12 12 11 9 9 8 7 6 4 5 7 7 4 3 5 5 5 5 5 6 7 6 5 4 4 1 1 1 2 3
36 35 33 33 32 31 30 28 26 25 24 23 21 20 20 19 20 21 23 24 23 23 23 23 23 23 23 23 22 21 21 20 20 20 19 17 17 17 17 17 16 14 13 14 15 13 11 10 9 9 8 7 6 6 6 5 4 5 5 4 4 6 7 8 7 6 5 6 5 2 2 3 3 4
38 36 35 35 35 34 32 31 30 29 28 26 25 23 22 21 20 21 22 23 23 23 23 23 24 24 24 23 22 21 21 20 20 20 19 18 17 17 16 16 14 12 12 14 14 12 10 9 9 9 8 7 7 7 6 5 5 6 5 5 7 9 8 6 5 3 2 3 3 3 4 4 5 5
Wind_Direction
299 297 296 294 292 289 287 286 284 282 281 280 279 279 278 277 277 277 277 275 274 273 273 272 272 271 270 269 269 269 268 268 268 268 268 267 266 267 267 266 265 264 263 262 261 260 258 258 259 259 260 259 259 259 260 261 263 264 264 265 266 267 269 270 272 273 269 266 265 259 254 255 255 253
306 305 303 301 299 296 293 290 288 285 283 282 280 279 278 278 277 277 277 277 277 276 274 273 272 271 270 269 268 268 267 267 267 267 267 267 266 266 266 265 264 263 263 263 262 261 259 258 257 257 257 257 258 260 261 261 261 261 262 263 265 266 266 268 270 272 271 271 270 266 262 262 261 259
312 310 309 307 305 303 301 298 295 293 290 288 285 283 280 279 277 276 275 276 276 276 276 276 275 274 273 272 270 269 268 267 267 267 266 266 266 266 265 265 264 262 261 261 261 260 259 258 257 256 256 256 257 259 261 262 261 260 260 260 260 260 261 261 262 265 268 270 269 268 266 265 264 264
316 315 314 312 311 309 308 305 302 300 297 294 291 288 286 283 281 279 276 275 274 273 274 274 275 275 275 275 273 272 270 269 268 267 267 266 266 266 265 265 265 263 261 259 258 257 257 256 255 255 255 255 256 257 259 261 261 260 258 258 258 258 258 257 257 258 262 264 266 267 267 266 265 264
319 318 316 315 313 311 309 306 304 301 299 297 294 292 291 289 287 285 282 279 277 275 274 273 273 273 273 273 273 273 272 271 269 268 267 266 266 266 266 265 265 264 263 261 259 257 255 254 254 253 252 252 253 254 256 258 259 259 258 257 257 257 257 256 255 254 256 259 262 263 265 266 265 265
319 317 315 314 312 310 308 307 305 304 302 301 299 298 297 296 294 292 289 286 284 282 280 279 278 276 275 274 272 271 270 269 268 268 267 266 265 265 265 265 264 264 264 263 261 258 256 255 254 253 251 251 251 252 253 255 257 258 258 258 257 256 255 254 254 253 253 254 256 259 261 263 263 263
319 317 315 314 312 312 311 310 309 308 307 305 304 302 301 299 296 294 292 290 288 287 285 283 283 283 282 280 278 275 271 268 266 265 265 264 263 263 263 263 263 262 262 262 261 259 257 255 254 254 253 252 251 252 253 254 256 257 258 258 257 257 256 254 253 253 252 251 252 254 256 259 260 260
319 318 317 316 316 315 315 314 313 311 309 307 305 303 301 298 296 294 293 291 290 288 286 285 285 286 285 284 283 282 279 274 268 264 263 263 262 261 261 261 261 261 259 260 260 259 258 256 254 253 253 253 252 252 253 254 255 256 257 257 257 257 257 256 254 253 252 251 250 250 251 253 255 256
321 321 320 320 320 320 319 318 316 313 311 308 306 304 302 299 297 295 293 293 292 291 289 288 288 288 287 286 284 283 284 284 277 269 265 264 263 262 260 259 260 260 258 258 258 258 258 257 256 253 252 252 252 251 251 252 253 254 255 256 256 256 256 255 255 254 253 251 250 249 248 248 249 250
324 324 324 324 324 324 323 321 318 316 314 312 310 308 306 303 299 297 296 295 295 294 292 291 290 289 288 287 286 283 283 286 286 280 273 268 265 263 261 260 259 258 258 257 257 257 257 257 257 257 255 253 252 251 250 250 251 252 253 254 254 254 254 254 254 253 252 251 249 248 248 247 246 246
328 328 328 328 328 327 325 323 321 318 316 314 313 313 312 309 304 301 300 299 297 295 293 292 290 289 288 287 287 286 284 283 285 284 280 274 270 267 264 262 260 259 257 257 257 256 256 256 256 257 256 256 254 254 252 251 250 250 252 253 254 253 253 253 253 252 251 250 248 247 247 247 246 245
330 330 330 329 329 327 326 324 321 319 317 315 314 314 313 312 309 307 306 304 302 299 296 293 290 288 288 287 287 287 286 283 280 280 280 278 275 271 268 265 262 260 258 257 256 256 256 255 255 255 256 257 257 256 256 256 255 253 251 251 252 254 254 254 253 252 251 250 248 246 245 245 245 244
330 330 329 328 327 326 324 322 320 319 317 315 314 313 312 311 310 309 309 308 306 305 303 299 294 290 287 287 286 286 286 284 280 278 278 278 276 274 271 268 265 262 260 259 258 257 256 255 256 255 256 257 257 257 257 256 257 256 255 253 251 251 251 252 253 253 252 250 249 247 244 243 243 243
329 328 327 326 325 324 322 321 319 317 316 315 313 312 311 309 308 307 307 307 307 306 306 304 300 295 290 287 287 286 285 284 281 278 278 278 276 274 272 270 268 265 262 260 258 257 256 256 256 256 256 257 257 257 257 256 256 255 255 255 253 250 248 248 249 251 252 251 250 248 245 242 241 241
327 326 326 325 325 323 322 320 319 317 316 314 312 311 309 307 306 305 304 303 304 304 304 303 302 299 294 290 289 287 286 285 284 281 279 278 276 273 270 268 266 265 262 260 257 256 255 255 256 256 257 257 258 258 258 258 257 256 254 253 253 252 249 247 246 247 249 251 251 249 247 244 241 240
327 327 327 326 325 324 323 322 320 318 316 314 312 310 309 307 305 303 302 300 300 300 300 300 301 300 297 293 289 287 287 287 286 283 280 278 276 274 271 267 264 262 259 257 255 254 253 253 254 256 257 259 259 260 260 259 259 257 255 253 252 251 249 247 245 244 246 248 249 250 249 247 243 240
329 329 328 327 326 325 324 322 321 319 318 315 313 311 310 308 306 304 302 300 298 297 297 297 298 298 296 293 288 286 285 285 284 282 280 278 278 276 272 268 265 260 257 255 254 253 252 251 252 254 257 259 261 262 263 262 260 258 256 254 251 249 247 246 244 243 243 244 246 248 249 249 247 244
330 330 329 328 327 326 325 323 321 320 318 316 313 312 310 308 305 303 302 300 298 297 295 294 294 295 294 291 287 284 283 283 281 281 280 280 279 277 274 271 268 262 257 253 252 251 250 250 250 252 254 257 260 261 261 260 259 258 256 254 251 248 245 244 242 241 241 241 243 245 246 247 248 247
331 330 330 329 328 326 325 323 321 320 318 315 313 310 308 306 304 301 299 298 297 296 293 291 291 291 291 290 287 283 280 280 281 281 281 281 281 279 276 274 271 266 260 254 251 249 249 248 248 250 252 255 257 258 258 257 257 256 256 255 253 250 246 243 241 240 239 239 240 242 243 245 246 246
331 330 330 329 328 326 325 323 321 319 317 314 312 309 307 304 302 299 297 295 294 292 291 289 287 287 287 287 285 283 280 278 279 280 280 280 280 277 275 274 274 270 263 255 250 249 248 248 248 249 252 255 257 259 258 257 255 254 253 253 253 252 249 244 241 240 239 239 239 240 241 242 243 244
330 330 330 329 328 327 325 324 322 319 317 314 312 309 307 304 301 298 296 293 291 288 287 285 283 283 283 283 282 281 279 276 275 276 277 276 275 273 272 272 273 271 263 254 251 249 249 248 248 250 252 254 255 255 254 253 252 251 249 249 250 250 248 246 243 241 240 240 240 240 241 241 241 242
331 331 330 329 328 327 326 324 322 320 317 315 313 311 309 306 304 301 297 293 289 285 282 281 278 277 277 278 278 278 277 274 271 271 272 271 270 269 268 268 270 269 262 253 249 246 244 243 243 244 246 246 246 246 245 244 246 246 246 245 247 248 247 246 244 243 242 241 241 241 241 241 241 241
332 332 330 329 329 328 326 324 322 320 318 316 314 313 311 310 309 308 305 301 294 286 279 276 273 271 271 273 273 272 272 270 268 268 268 268 266 266 265 265 266 266 262 253 246 242 239 238 236 234 236 239 241 241 242 241 242 245 246 244 244 245 246 246 245 243 242 241 241 241 241 242 242 241
333 332 331 330 330 328 327 325 323 323 321 320 319 318 317 316 316 315 313 311 306 293 281 273 268 264 264 266 266 265 265 265 264 264 264 263 261 261 262 262 261 262 261 253 243 239 237 237 235 234 235 239 241 243 243 241 241 244 246 246 247 247 246 246 245 244 243 242 241 240 241 241 242 242
333 333 332 332 330 329 328 328 327 327 326 325 325 323 321 319 318 316 314 313 312 304 287 273 264 258 256 259 260 259 259 261 261 260 259 257 256 257 260 260 259 259 258 252 242 236 237 238 238 238 239 240 241 244 246 244 242 242 241 241 244 245 245 247 247 244 243 244 244 243 242 242 242 243
334 334 334 333 331 331 332 331 331 331 331 331 330 328 325 322 319 317 314 311 311 307 294 278 264 254 250 251 253 254 255 256 256 254 253 252 253 255 258 259 259 258 256 252 244 236 235 238 240 242 242 242 243 245 247 246 244 243 240 236 235 237 239 242 247 248 247 244 243 243 244 242 242 242
335 335 335 334 333 333 334 334 334 334 335 338 339 337 335 333 330 328 324 317 311 307 300 286 267 252 245 245 248 249 250 252 251 250 249 248 249 251 254 257 259 259 256 252 246 239 235 236 239 242 242 242 243 245 247 247 244 243 242 237 232 231 233 238 245 252 253 246 238 238 241 241 241 241
337 337 337 335 335 336 336 337 338 340 343 346 348 347 345 343 340 338 334 328 319 312 306 293 271 251 242 242 244 246 248 251 252 250 248 247 247 250 253 256 259 258 254 249 243 236 233 234 238 243 244 242 242 243 246 249 247 244 241 238 233 232 234 238 243 247 248 246 241 239 241 242 241 241
338 338 337 336 337 338 340 340 342 344 348 350 350 349 346 342 341 343 343 338 330 322 315 302 276 253 242 240 242 243 246 251 252 250 249 249 251 254 256 257 256 254 251 246 240 234 233 233 236 241 244 242 242 244 247 250 251 245 239 235 232 231 233 236 238 241 243 245 245 243 242 242 242 242
339 338 338 339 341 342 343 343 345 348 351 352 350 349 347 344 345 350 351 348 343 334 325 309 280 257 244 238 237 239 244 250 250 247 246 249 255 259 258 255 252 250 248 246 241 235 234 232 230 235 242 243 243 245 247 248 245 238 233 230 227 225 228 232 236 240 243 244 244 243 242 241 240 241
338 339 342 344 345 345 345 347 348 350 353 353 352 352 353 351 352 357 359 0 0 353 340 321 285 257 243 234 231 235 243 249 247 244 244 247 253 257 256 253 251 248 248 248 244 236 232 230 229 232 238 239 236 238 244 245 240 230 225 226 225 225 227 231 235 241 244 243 242 243 242 241 240 241
340 343 347 348 348 347 347 349 351 352 355 356 355 356 358 358 359 3 6 8 8 0 350 339 305 253 228 220 223 230 240 244 239 237 241 245 248 251 251 250 248 246 245 244 241 236 232 230 228 229 232 233 231 232 238 244 244 236 228 227 228 228 229 229 233 241 245 244 245 248 248 245 243 241
345 349 350 350 350 350 350 351 353 355 359 359 357 358 2 4 3 4 5 7 7 2 359 358 359 358 185 195 211 225 232 229 225 228 235 239 243 246 246 246 245 243 243 241 238 236 233 230 227 227 228 230 231 234 237 238 241 240 235 231 230 231 232 233 237 242 246 247 250 253 252 249 245 241
351 351 351 351 352 352 353 355 357 0 2 2 360 1 5 8 7 4 4 7 9 9 12 22 35 50 80 119 188 215 217 214 215 222 228 234 240 244 245 245 241 239 241 242 240 238 236 234 232 231 232 233 236 239 240 237 233 232 233 235 235 235 237 239 241 245 247 249 250 248 246 245 243 240
352 351 352 354 354 354 357 360 3 6 6 6 5 5 8 11 10 8 11 18 22 24 30 38 46 55 65 72 99 169 194 203 209 215 222 231 240 245 247 246 242 240 241 242 241 241 240 239 238 237 238 239 240 241 244 243 237 232 232 236 237 237 238 241 243 245 244 241 238 236 235 236 237 235
353 353 355 356 355 356 1 6 9 10 10 11 12 12 13 14 13 15 22 29 32 35 40 45 49 55 59 64 79 111 153 185 200 213 223 231 240 246 250 249 245 240 238 236 236 236 235 237 240 241 241 242 243 246 248 248 244 239 236 235 232 230 231 233 236 237 233 223 219 223 228 230 231 233
354 355 357 359 359 0 5 10 13 13 13 15 17 18 18 19 20 23 29 34 36 39 43 46 48 49 51 57 65 70 85 138 182 209 226 237 244 248 249 248 242 236 233 232 233 231 229 230 233 235 237 240 242 246 248 248 249 250 246 238 229 221 220 223 228 229 221 212 210 217 223 227 231 234
357 357 359 1 2 5 9 13 15 15 15 18 21 22 24 25 26 29 33 38 40 41 43 45 46 47 50 55 61 69 85 115 152 183 204 226 239 242 242 239 235 230 225 223 226 231 231 227 221 221 227 231 231 237 246 250 250 247 240 229 216 210 211 216 218 216 208 206 212 220 225 229 234 238
0 1 3 5 7 10 14 16 17 17 18 21 24 25 27 29 30 32 36 40 43 45 46 46 47 50 54 57 60 66 78 95 115 136 153 174 200 221 231 231 227 222 219 218 219 219 215 211 208 209 216 222 225 228 234 238 238 235 231 222 210 205 206 207 205 204 210 218 224 228 228 228 233 238
5 5 8 11 13 14 17 20 20 20 22 24 26 27 29 32 33 35 38 43 47 50 52 52 52 54 58 60 62 65 69 75 84 94 107 120 131 149 177 189 190 192 193 193 193 190 189 192 197 201 213 223 221 215 217 223 226 223 217 209 200 196 200 207 210 216 228 232 229 226 223 221 224 229
10 11 14 16 18 19 20 22 22 22 24 26 28 29 31 34 37 39 42 46 49 53 56 57 58 59 60 61 63 63 64 66 70 75 83 89 95 102 110 114 122 140 153 157 160 160 159 161 164 173 199 211 209 211 214 209 201 200 205 206 203 198 202 212 216 217 222 219 213 211 213 209 211 219
14 18 20 23 25 26 25 24 25 25 26 28 29 29 30 34 39 43 46 47 50 54 58 60 60 60 60 61 62 63 63 64 65 68 73 78 84 89 93 94 101 112 120 125 127 124 116 110 105 95 83 100 198 205 193 175 168 188 200 195 192 190 189 193 193 190 188 183 176 176 296 266 234 225
19 23 25 27 30 32 31 30 29 30 31 32 32 30 30 32 37 43 47 49 50 53 57 60 61 61 60 60 62 63 64 64 66 69 73 77 81 85 86 86 88 95 105 110 110 106 101 99 98 93 80 70 92 147 155 144 132 152 165 160 156 163 169 172 169 166 166 165 165 190 294 297 266 235
23 26 29 31 34 35 36 35 35 35 36 36 35 33 32 34 39 44 48 50 52 53 56 58 60 61 61 61 62 63 64 63 64 68 73 76 79 82 86 87 86 90 103 113 112 107 104 102 103 104 98 88 96 123 145 151 148 154 165 171 160 154 160 166 161 150 144 150 157 192 277 268 253 246
28 31 33 35 37 38 40 40 40 41 41 42 42 41 41 44 46 48 49 51 53 55 56 58 58 58 59 59 61 63 63 62 62 65 69 73 75 77 81 84 86 95 113 123 121 113 103 94 92 96 98 100 108 117 124 138 150 148 146 151 147 141 141 150 154 149 154 171 183 226 260 253 244 242
Height
5863 5862 5861 5859 5858 5856 5855 5853 5852 5851 5849 5848 5846 5845 5844 5843 5842 5840 5839 5838 5836 5836 5835 5833 5832 5832 5831 5830 5829 5828 5828 5828 5828 5828 5828 5828 5828 5828 5828 5830 5831 5833 5834 5835 5836 5837 5838 5839 5840 5841 5841 5841 5840 5837 5836 5839 5842 5844 5846 5848 5849 5850 5852 5854 5855 5855 5856 5858 5859 5860 5861 5863 5864 5865
5861 5859 5858 5856 5855 5853 5852 5850 5849 5847 5846 5844 5843 5842 5840 5839 5838 5836 5835 5833 5832 5831 5830 5829 5827 5827 5826 5825 5824 5823 5822 5822 5822 5822 5821 5821 5822 5822 5822 5823 5825 5827 5827 5828 5829 5831 5832 5833 5834 5835 5835 5835 5834 5831 5831 5834 5837 5839 5841 5843 5845 5846 5848 5850 5851 5851 5852 5854 5856 5857 5858 5860 5861 5862
5858 5856 5854 5853 5851 5849 5848 5846 5845 5843 5842 5840 5839 5838 5836 5835 5834 5833 5832 5830 5828 5826 5825 5824 5823 5822 5821 5820 5819 5818 5818 5817 5817 5816 5815 5815 5815 5815 5816 5816 5818 5820 5822 5823 5823 5824 5825 5826 5827 5829 5830 5830 5829 5827 5826 5828 5831 5834 5837 5838 5840 5842 5844 5847 5848 5848 5848 5850 5851 5852 5854 5856 5858 5859
5855 5853 5851 5849 5847 5846 5844 5842 5841 5839 5837 5836 5834 5833 5831 5830 5829 5828 5827 5826 5824 5822 5821 5820 5818 5817 5816 5815 5814 5813 5812 5812 5812 5810 5809 5809 5809 5809 5809 5809 5810 5812 5815 5817 5818 5818 5819 5820 5821 5822 5824 5824 5824 5823 5822 5823 5825 5828 5832 5834 5835 5837 5839 5842 5843 5844 5844 5845 5846 5847 5848 5851 5853 5855
5852 5850 5848 5846 5844 5842 5840 5838 5837 5835 5833 5831 5829 5828 5826 5825 5824 5823 5822 5821 5819 5818 5817 5815 5814 5813 5811 5810 5808 5807 5806 5806 5806 5805 5804 5803 5803 5802 5802 5803 5803 5805 5807 5810 5812 5813 5813 5814 5815 5816 5817 5818 5818 5818 5818 5818 5820 5822 5825 5828 5830 5831 5833 5836 5838 5839 5840 5840 5841 5842 5843 5845 5847 5849
5849 5847 5845 5843 5841 5839 5837 5835 5833 5831 5829 5827 5825 5823 5822 5820 5819 5818 5817 5816 5815 5813 5812 5810 5809 5808 5807 5805 5803 5802 5801 5800 5799 5799 5797 5797 5797 5796 5796 5796 5797 5798 5800 5801 5803 5805 5807 5808 5809 5809 5810 5812 5812 5813 5813 5813 5815 5816 5819 5822 5824 5826 5827 5829 5832 5834 5835 5836 5837 5838 5839 5840 5841 5844
5846 5844 5842 5839 5837 5835 5833 5831 5828 5826 5825 5823 5821 5819 5818 5816 5815 5813 5812 5811 5810 5809 5807 5805 5804 5803 5802 5800 5798 5796 5795 5793 5793 5792 5791 5790 5790 5790 5789 5789 5790 5792 5794 5794 5795 5797 5799 5801 5802 5803 5804 5805 5806 5807 5808 5808 5809 5811 5813 5816 5818 5819 5821 5823 5825 5827 5830 5831 5832 5834 5834 5835 5836 5838
5842 5840 5838 5836 5833 5831 5829 5827 5825 5823 5821 5819 5817 5815 5814 5812 5810 5808 5807 5806 5805 5804 5802 5800 5799 5797 5796 5795 5793 5791 5789 5787 5786 5785 5784 5783 5783 5782 5783 5783 5783 5786 5788 5788 5789 5790 5792 5794 5796 5797 5797 5798 5800 5802 5803 5804 5804 5806 5808 5810 5812 5813 5814 5816 5818 5821 5823 5825 5827 5829 5830 5830 5831 5832
5839 5837 5834 5832 5830 5827 5825 5823 5821 5819 5817 5815 5813 5811 5809 5807 5805 5803 5802 5800 5799 5798 5797 5795 5793 5791 5790 5788 5786 5785 5783 5781 5780 5778 5777 5776 5775 5775 5776 5777 5777 5778 5780 5781 5783 5784 5786 5787 5788 5790 5792 5792 5793 5795 5797 5798 5799 5801 5802 5804 5806 5807 5808 5810 5812 5814 5816 5819 5821 5823 5824 5826 5827 5828
5836 5833 5831 5828 5826 5824 5822 5820 5817 5815 5813 5811 5809 5806 5804 5802 5800 5798 5796 5795 5794 5792 5790 5789 5787 5785 5783 5781 5780 5778 5777 5776 5774 5773 5771 5770 5769 5768 5768 5769 5770 5771 5773 5774 5776 5778 5779 5780 5781 5783 5784 5786 5787 5788 5790 5792 5794 5795 5797 5798 5800 5801 5802 5803 5805 5807 5809 5812 5815 5817 5818 5820 5822 5823
5833 5830 5827 5825 5822 5820 5818 5816 5814 5811 5809 5807 5804 5802 5799 5797 5795 5793 5791 5789 5788 5786 5784 5783 5781 5779 5777 5775 5774 5772 5771 5770 5769 5768 5766 5765 5764 5763 5762 5763 5763 5765 5766 5768 5769 5771 5772 5774 5775 5776 5777 5778 5780 5782 5783 5786 5788 5790 5791 5793 5794 5795 5796 5798 5799 5802 5803 5805 5808 5810 5812 5814 5816 5818
5829 5827 5824 5821 5819 5816 5814 5812 5810 5807 5805 5802 5800 5798 5795 5792 5790 5788 5786 5784 5782 5780 5778 5777 5775 5773 5771 5769 5768 5767 5766 5765 5763 5762 5761 5760 5759 5758 5757 5757 5757 5758 5760 5761 5762 5763 5765 5767 5769 5770 5771 5772 5774 5775 5777 5779 5781 5783 5786 5788 5789 5790 5791 5792 5793 5795 5798 5799 5801 5804 5806 5808 5810 5812
5826 5823 5820 5818 5815 5813 5811 5808 5806 5804 5801 5798 5796 5793 5791 5788 5785 5783 5781 5778 5776 5774 5772 5771 5769 5767 5765 5763 5762 5761 5760 5759 5758 5757 5756 5755 5754 5753 5753 5752 5752 5753 5754 5755 5756 5757 5759 5760 5762 5763 5765 5766 5767 5769 5771 5772 5774 5776 5778 5781 5783 5785 5785 5786 5787 5789 5791 5793 5795 5797 5800 5802 5804 5806
5823 5820 5818 5815 5813 5810 5808 5805 5803 5800 5797 5794 5792 5789 5786 5783 5781 5778 5775 5773 5771 5769 5767 5765 5763 5761 5759 5758 5757 5756 5755 5754 5753 5752 5751 5750 5750 5749 5749 5748 5748 5748 5749 5750 5750 5751 5753 5755 5756 5757 5759 5760 5761 5762 5764 5765 5767 5769 5771 5772 5775 5777 5779 5780 5781 5783 5784 5787 5789 5791 5794 5796 5798 5800
5821 5818 5815 5812 5809 5807 5804 5802 5799 5796 5793 5790 5787 5784 5781 5778 5776 5773 5771 5768 5766 5764 5761 5759 5757 5755 5754 5752 5751 5750 5750 5749 5748 5747 5746 5746 5745 5744 5744 5744 5744 5744 5744 5745 5745 5746 5748 5749 5750 5751 5753 5754 5755 5756 5757 5758 5760 5762 5764 5765 5767 5769 5772 5774 5775 5777 5779 5780 5782 5785 5787 5790 5792 5795
5818 5815 5812 5809 5806 5803 5800 5797 5794 5791 5788 5785 5782 5779 5776 5773 5770 5767 5765 5763 5761 5759 5757 5754 5752 5750 5748 5747 5746 5745 5744 5744 5743 5743 5742 5741 5740 5740 5740 5739 5739 5740 5740 5741 5741 5742 5744 5745 5746 5747 5748 5748 5749 5750 5751 5752 5753 5754 5756 5758 5760 5762 5764 5766 5769 5771 5773 5775 5776 5778 5781 5783 5786 5789
5815 5811 5808 5806 5803 5800 5796 5793 5790 5786 5783 5779 5776 5773 5770 5767 5764 5761 5758 5756 5755 5753 5752 5749 5747 5745 5743 5742 5741 5740 5740 5739 5739 5738 5738 5737 5737 5736 5736 5735 5735 5736 5736 5736 5737 5738 5739 5740 5741 5742 5743 5744 5745 5745 5746 5747 5747 5748 5749 5751 5752 5754 5756 5759 5761 5764 5767 5769 5771 5773 5775 5777 5780 5782
5811 5808 5805 5802 5799 5796 5793 5789 5785 5782 5778 5774 5770 5767 5764 5761 5757 5754 5751 5749 5747 5746 5745 5744 5742 5740 5738 5737 5736 5735 5735 5735 5734 5734 5734 5733 5733 5733 5732 5732 5732 5732 5732 5733 5734 5734 5734 5736 5737 5738 5739 5739 5740 5741 5742 5742 5743 5743 5744 5744 5746 5747 5750 5752 5754 5758 5761 5763 5765 5767 5769 5771 5774 5776
5809 5805 5802 5799 5796 5792 5789 5785 5781 5777 5773 5769 5764 5761 5757 5754 5750 5747 5744 5742 5740 5739 5738 5738 5737 5735 5734 5732 5731 5730 5730 5730 5730 5729 5729 5729 5729 5729 5728 5728 5728 5728 5729 5729 5730 5730 5730 5732 5733 5734 5735 5735 5736 5737 5738 5738 5739 5739 5740 5740 5741 5742 5744 5746 5748 5751 5754 5757 5760 5762 5764 5766 5768 5770
5806 5803 5799 5795 5792 5788 5785 5780 5776 5772 5767 5762 5758 5754 5750 5746 5743 5739 5736 5734 5732 5731 5730 5730 5730 5730 5728 5727 5726 5725 5725 5726 5725 5725 5725 5725 5725 5725 5725 5725 5725 5725 5726 5726 5726 5727 5727 5728 5730 5731 5731 5732 5732 5733 5734 5734 5735 5736 5736 5737 5737 5738 5740 5741 5743 5746 5748 5751 5753 5756 5758 5761 5763 5765
5803 5799 5795 5791 5787 5783 5779 5775 5770 5765 5760 5755 5751 5746 5742 5738 5734 5731 5728 5725 5724 5723 5722 5723 5723 5723 5723 5722 5722 5721 5721 5721 5721 5721 5721 5722 5721 5721 5722 5722 5722 5722 5723 5723 5724 5724 5725 5726 5727 5728 5729 5729 5729 5730 5730 5731 5732 5732 5733 5733 5734 5735 5736 5737 5739 5741 5743 5746 5748 5750 5752 5755 5757 5760
5800 5796 5792 5787 5783 5778 5774 5769 5764 5759 5753 5748 5743 5738 5734 5729 5726 5722 5719 5716 5715 5714 5714 5714 5716 5717 5717 5717 5717 5717 5716 5716 5717 5717 5718 5718 5718 5718 5719 5719 5719 5719 5720 5721 5721 5722 5722 5723 5724 5725 5726 5726 5727 5727 5728 5729 5729 5729 5730 5731 5732 5733 5733 5734 5736 5737 5739 5741 5743 5745 5747 5749 5752 5755
5796 5792 5788 5783 5779 5774 5768 5763 5757 5752 5747 5741 5736 5731 5726 5722 5718 5715 5712 5709 5707 5706 5705 5706 5708 5710 5712 5712 5712 5712 5712 5712 5713 5713 5714 5715 5715 5715 5715 5716 5716 5717 5718 5719 5719 5719 5720 5721 5722 5723 5724 5725 5725 5726 5726 5727 5727 5727 5728 5729 5730 5731 5732 5732 5733 5735 5736 5737 5739 5740 5742 5744 5746 5749
5793 5789 5784 5779 5773 5768 5762 5757 5751 5746 5740 5735 5730 5725 5721 5717 5714 5710 5707 5704 5702 5699 5698 5699 5701 5703 5706 5707 5707 5708 5708 5708 5709 5710 5711 5712 5712 5712 5712 5713 5713 5714 5715 5716 5717 5717 5718 5719 5720 5721 5722 5723 5723 5724 5725 5725 5726 5726 5726 5727 5728 5729 5730 5731 5732 5732 5733 5734 5735 5736 5738 5739 5742 5744
5790 5785 5780 5774 5769 5763 5757 5751 5745 5740 5734 5730 5725 5721 5717 5713 5710 5706 5703 5700 5697 5695 5693 5693 5694 5697 5700 5701 5703 5704 5704 5705 5705 5706 5707 5708 5708 5709 5709 5710 5711 5712 5713 5714 5715 5716 5717 5718 5719 5720 5720 5721 5721 5722 5723 5723 5724 5724 5725 5726 5727 5727 5728 5729 5730 5730 5730 5731 5732 5733 5735 5736 5738 5740
5787 5782 5776 5770 5764 5758 5752 5746 5740 5735 5730 5726 5722 5718 5714 5709 5705 5701 5698 5695 5693 5691 5689 5689 5689 5692 5694 5696 5698 5700 5701 5702 5702 5703 5704 5705 5706 5706 5706 5707 5708 5709 5710 5711 5713 5714 5715 5716 5716 5717 5718 5719 5720 5720 5721 5721 5722 5722 5723 5724 5725 5726 5727 5727 5727 5727 5727 5728 5730 5731 5732 5733 5734 5736
5783 5778 5772 5766 5760 5754 5749 5743 5737 5732 5728 5724 5719 5715 5710 5705 5701 5697 5694 5691 5689 5687 5686 5686 5686 5688 5690 5692 5694 5696 5697 5698 5699 5700 5701 5702 5703 5703 5704 5704 5705 5706 5707 5708 5710 5711 5712 5713 5714 5715 5716 5717 5718 5718 5718 5719 5720 5720 5721 5722 5723 5724 5725 5725 5725 5725 5725 5725 5726 5727 5729 5730 5731 5732
5779 5774 5768 5762 5757 5751 5745 5740 5735 5731 5726 5722 5718 5713 5708 5704 5699 5695 5692 5689 5687 5685 5684 5684 5684 5685 5686 5689 5691 5693 5694 5695 5696 5697 5698 5699 5700 5701 5702 5702 5703 5703 5705 5706 5707 5708 5709 5711 5712 5713 5714 5715 5715 5716 5716 5717 5718 5718 5719 5720 5721 5722 5723 5723 5723 5723 5722 5722 5723 5724 5726 5727 5728 5729
5776 5771 5766 5760 5754 5749 5743 5737 5733 5730 5725 5721 5717 5712 5708 5704 5699 5695 5691 5688 5686 5684 5683 5683 5683 5683 5684 5686 5688 5690 5692 5693 5693 5694 5695 5696 5697 5698 5699 5700 5700 5701 5702 5703 5705 5706 5707 5708 5710 5711 5712 5713 5713 5714 5714 5715 5715 5716 5717 5718 5719 5720 5721 5721 5721 5720 5719 5720 5721 5722 5723 5724 5725 5726
5774 5769 5764 5758 5752 5746 5740 5736 5732 5728 5724 5720 5716 5712 5708 5703 5699 5695 5691 5688 5686 5684 5683 5682 5682 5682 5683 5684 5686 5688 5689 5690 5691 5692 5693 5694 5695 5695 5697 5698 5698 5699 5700 5701 5703 5704 5705 5706 5707 5708 5709 5711 5711 5711 5712 5712 5713 5714 5715 5716 5717 5718 5718 5719 5718 5718 5718 5719 5719 5720 5721 5722 5723 5723
5772 5767 5761 5755 5749 5743 5739 5735 5731 5727 5723 5719 5715 5711 5707 5703 5699 5695 5692 5689 5686 5684 5683 5682 5681 5681 5682 5683 5685 5686 5688 5689 5689 5690 5691 5692 5693 5693 5694 5695 5696 5697 5699 5700 5701 5702 5703 5704 5706 5707 5707 5708 5709 5709 5710 5710 5711 5712 5713 5714 5715 5716 5716 5717 5717 5717 5717 5718 5718 5718 5719 5720 5720 5721
5770 5764 5758 5752 5747 5742 5738 5734 5730 5726 5722 5718 5714 5710 5707 5703 5700 5697 5693 5690 5688 5685 5683 5682 5681 5681 5682 5683 5684 5686 5687 5688 5688 5689 5690 5691 5691 5692 5693 5694 5695 5696 5697 5698 5699 5700 5701 5702 5704 5705 5706 5706 5707 5708 5708 5708 5709 5710 5711 5712 5712 5713 5714 5715 5716 5716 5715 5715 5716 5716 5717 5717 5718 5719
5767 5761 5755 5750 5745 5741 5737 5733 5729 5726 5722 5718 5714 5710 5707 5704 5701 5698 5695 5692 5689 5686 5684 5683 5682 5682 5682 5683 5684 5685 5686 5687 5688 5689 5689 5690 5690 5691 5691 5693 5694 5695 5696 5697 5698 5699 5700 5701 5702 5703 5704 5705 5705 5706 5706 5707 5707 5708 5709 5710 5710 5711 5711 5712 5713 5713 5713 5713 5714 5714 5715 5715 5716 5716
5764 5759 5754 5749 5744 5740 5737 5733 5729 5726 5722 5718 5714 5710 5707 5704 5701 5698 5696 5693 5690 5687 5685 5684 5683 5683 5683 5683 5684 5685 5686 5686 5687 5688 5689 5689 5689 5690 5690 5692 5693 5694 5695 5695 5696 5698 5699 5699 5700 5701 5702 5703 5704 5704 5705 5705 5706 5707 5707 5708 5708 5709 5709 5710 5710 5711 5711 5712 5712 5712 5713 5713 5713 5714
5763 5758 5753 5748 5744 5740 5737 5733 5730 5726 5723 5719 5715 5711 5708 5705 5702 5699 5697 5694 5692 5689 5687 5686 5685 5684 5684 5684 5684 5685 5686 5686 5687 5688 5688 5688 5688 5689 5690 5691 5692 5693 5693 5694 5695 5696 5697 5698 5699 5700 5701 5702 5702 5703 5703 5704 5705 5705 5706 5706 5707 5707 5708 5708 5709 5709 5710 5710 5711 5711 5711 5711 5712 5713
5762 5757 5752 5748 5744 5740 5737 5734 5730 5727 5724 5720 5716 5712 5709 5706 5703 5701 5698 5695 5693 5691 5689 5687 5686 5686 5685 5685 5685 5685 5686 5686 5687 5687 5688 5688 5688 5688 5689 5690 5691 5692 5692 5693 5694 5695 5696 5696 5697 5699 5700 5700 5701 5702 5702 5702 5703 5703 5704 5705 5705 5706 5706 5707 5707 5708 5708 5709 5709 5710 5710 5711 5711 5712
5762 5757 5752 5748 5744 5740 5737 5734 5731 5728 5725 5721 5717 5713 5710 5708 5705 5703 5700 5697 5695 5693 5691 5689 5688 5687 5687 5686 5686 5686 5686 5686 5687 5687 5687 5687 5687 5688 5688 5689 5690 5691 5692 5692 5693 5693 5694 5695 5697 5698 5698 5699 5699 5700 5700 5700 5701 5702 5702 5703 5704 5704 5705 5706 5706 5707 5707 5708 5708 5709 5709 5710 5710 5710
5762 5757 5752 5748 5744 5741 5738 5735 5732 5729 5726 5722 5719 5715 5712 5709 5707 5704 5702 5699 5697 5695 5693 5692 5690 5689 5688 5688 5687 5687 5687 5686 5686 5687 5687 5687 5687 5687 5688 5688 5689 5690 5691 5691 5692 5693 5693 5695 5696 5697 5697 5697 5698 5699 5699 5699 5700 5700 5701 5701 5702 5703 5704 5704 5705 5705 5706 5706 5707 5708 5708 5708 5709 5709
5762 5757 5752 5748 5745 5742 5739 5736 5733 5730 5727 5724 5721 5718 5715 5712 5709 5707 5704 5702 5699 5697 5696 5694 5693 5691 5690 5689 5688 5688 5687 5687 5687 5687 5687 5687 5687 5687 5687 5688 5689 5689 5690 5691 5692 5693 5694 5694 5695 5695 5696 5696 5697 5697 5698 5698 5699 5699 5700 5700 5701 5702 5702 5703 5704 5704 5705 5705 5706 5706 5707 5707 5708 5708
5762 5758 5753 5749 5746 5743 5740 5737 5734 5731 5729 5726 5723 5721 5718 5715 5712 5710 5707 5704 5702 5700 5699 5697 5695 5694 5692 5691 5690 5689 5688 5688 5687 5687 5687 5687 5687 5687 5687 5688 5688 5689 5690 5691 5692 5693 5693 5694 5694 5695 5695 5696 5696 5697 5697 5697 5698 5698 5699 5699 5700 5701 5701 5702 5703 5703 5704 5704 5705 5705 5705 5706 5707 5707
5764 5759 5754 5750 5747 5744 5741 5739 5736 5733 5731 5728 5726 5723 5721 5718 5715 5713 5710 5708 5705 5703 5701 5700 5698 5697 5695 5694 5693 5692 5691 5690 5689 5689 5688 5688 5688 5688 5688 5688 5689 5689 5690 5691 5692 5693 5693 5694 5694 5695 5695 5695 5695 5696 5696 5696 5697 5698 5698 5698 5699 5700 5701 5701 5702 5702 5703 5703 5704 5704 5705 5705 5706 5706
5765 5760 5756 5752 5748 5745 5742 5740 5737 5735 5732 5730 5728 5726 5723 5721 5718 5716 5713 5711 5708 5706 5704 5703 5701 5700 5698 5697 5695 5694 5693 5693 5692 5691 5691 5690 5690 5690 5690 5690 5690 5690 5691 5692 5692 5693 5694 5694 5695 5695 5695 5695 5695 5695 5696 5696 5697 5698 5698 5699 5699 5700 5700 5701 5701 5701 5702 5703 5704 5704 5705 5705 5705 5706
5767 5762 5758 5754 5750 5747 5744 5741 5739 5737 5734 5732 5730 5728 5726 5723 5721 5718 5716 5713 5711 5709 5707 5706 5704 5703 5701 5700 5698 5697 5696 5696 5695 5694 5694 5693 5693 5692 5692 5692 5692 5692 5693 5693 5694 5695 5695 5695 5696 5696 5696 5696 5695 5695 5696 5697 5698 5698 5699 5699 5700 5700 5700 5700 5701 5701 5702 5703 5703 5704 5704 5705 5705 5705
5769 5764 5760 5756 5752 5749 5746 5743 5741 5738 5736 5734 5732 5730 5727 5725 5723 5721 5719 5716 5714 5713 5711 5709 5707 5706 5705 5703 5702 5701 5700 5699 5698 5697 5696 5696 5696 5695 5695 5695 5695 5695 5695 5696 5696 5697 5697 5697 5697 5697 5697 5696 5696 5696 5697 5698 5698 5699 5699 5699 5700 5700 5700 5701 5701 5702 5702 5702 5703 5703 5704 5704 5704 5705
5772 5767 5763 5759 5755 5752 5749 5746 5743 5741 5738 5736 5734 5732 5729 5727 5725 5723 5721 5720 5718 5716 5714 5713 5711 5709 5708 5707 5705 5704 5703 5702 5701 5700 5699 5699 5698 5698 5698 5697 5697 5697 5697 5698 5698 5698 5698 5698 5698 5698 5698 5697 5697 5698 5698 5698 5699 5699 5700 5700 5700 5701 5701 5701 5702 5702 5702 5702 5702 5703 5703 5703 5703 5704